Zurück zum Katalog

STARLINK-31018

AktivKommunikationVLEO
NORAD 58635·PAYLOAD·🇺🇸 United States

Gestartet Dec 23, 2023 von Cape Canaveral Space Force Station

Loading…

Nächste Überflüge (nächste 24 Stunden)

TLE

AktuellSource: CelesTrak SupGP

Epoche: Sep 15, 2026, 02:58 UTC

1 58635C 23203T   26258.12409722 -.00016871  00000+0 -61093-3 0  2581
2 58635  43.0031  77.5680 0001396 268.5400 300.9314 15.27593946    19

Verfolge STARLINK-31018 in Echtzeit mit AllMySat

Download on the App Store